Location: State Camp
(41.2367°N, 77.7828°W)
Time: 09:35:44
(UTC-05:00)

ADEOS Rocket - Visible Passes

Search period start: 23 January 2017 00:00
Search period end: 02 February 2017 00:00
Orbit: 859 x 1306 km, 98.7° (Epoch: 21 January)

Date Brightness Start Highest point End Pass type
(mag) Time Alt. Az. Time Alt. Az. Time Alt. Az.
23 Jan 5.6 03:04:29 10° NNE 03:05:51 16° NNE 03:05:51 16° NNE visible
23 Jan 5.2 04:50:49 10° N 04:52:49 17° NNW 04:52:49 17° NNW visible
24 Jan 6.1 02:16:14 10° NNE 02:16:21 10° NNE 02:16:21 10° NNE visible
24 Jan 5.2 04:01:14 10° N 04:03:20 20° N 04:03:20 20° N visible
24 Jan 5.4 05:50:08 10° NNW 05:50:17 10° NNW 05:50:17 10° NNW visible
25 Jan 5.5 03:12:12 10° NNE 03:13:51 18° NNE 03:13:51 18° NNE visible
25 Jan 5.2 04:58:47 10° N 05:00:48 17° NNW 05:00:48 17° NNW visible
26 Jan 5.9 02:23:48 10° NNE 02:24:22 12° NNE 02:24:22 12° NNE visible
26 Jan 5.2 04:09:03 10° N 04:11:19 20° N 04:11:19 20° N visible
27 Jan 5.4 03:19:56 10° NNE 03:21:50 19° NNE 03:21:50 19° NNE visible
27 Jan 5.2 05:06:47 10° NNW 05:08:47 16° NNW 05:08:47 16° NNW visible
28 Jan 5.8 02:31:25 10° NNE 02:32:20 14° NNE 02:32:20 14° NNE visible
28 Jan 5.1 04:16:54 10° N 04:19:18 21° N 04:19:18 21° N visible
29 Jan 5.3 03:27:42 10° NNE 03:29:49 21° NNE 03:29:49 21° NNE visible
29 Jan 5.2 05:14:50 10° NNW 05:16:47 15° NNW 05:16:47 15° NNW visible
30 Jan 5.7 02:39:03 10° NNE 02:40:19 15° NNE 02:40:19 15° NNE visible
30 Jan 5.1 04:24:47 10° N 04:27:17 21° NNW 04:27:17 21° NNW visible
31 Jan 5.2 03:35:29 10° N 03:37:48 22° N 03:37:48 22° N visible
31 Jan 5.2 05:22:58 10° NNW 05:24:45 14° NNW 05:24:45 14° NNW visible
01 Feb 5.6 02:46:44 10° NNE 02:48:18 17° NNE 02:48:18 17° NNE visible
01 Feb 5.0 04:32:41 10° N 04:35:15 20° NNW 04:35:15 20° NNW visible
